Regional Weather Roundup
Issued by NWS Upton, NY

Current Version | Previous Version | Graphics & Text | Print | Product List | Glossary Off
Versions: 1 2 3 4 5 6 7 8 9 10 11 12 13 14 15 16 17 18 19 20 21 22 23 24 25 26 27 28 29 30 31 32 33 34 35 36 37 38 39 40 41 42 43 44 45 46 47 48 49 50

280
ASUS41 KOKX 301504
RWROKX

REGIONAL WEATHER ROUNDUP
NATIONAL WEATHER SERVICE NEW YORK NY
1100 AM EDT MON MAY 30 2016

NOTE: "FAIR" INDICATES FEW OR NO CLOUDS BELOW 12,000 FEET WITH NO
SIGNIFICANT WEATHER AND/OR OBSTRUCTIONS TO VISIBILITY.

NYZ071-072-176-178-NJZ106-104-301600-
NEW YORK CITY METRO AREA


CITY           SKY/WX    TMP DP  RH WIND       PRES   REMARKS
CENTRAL PARK   CLOUDY    72  67  84 W6        30.02F
LAGUARDIA APRT PTSUNNY   74  71  91 NW3       29.99F
KENNEDY INTL   CLOUDY    74  70  87 SW6       30.00F
NEWARK/LIBERTY CLOUDY    76  68  76 W6        29.99F
BRNX BOT. GARD   N/A     73  66  78 SW2       30.01R
TETERBORO      LGT RAIN  75  65  70 SW6       29.98F
$$

NYZ177-179-078>081-301600-
LONG ISLAND NEW YORK

CITY           SKY/WX    TMP DP  RH WIND       PRES   REMARKS
FARMINGDALE    CLOUDY    72  69  90 SW6       30.00S
ISLIP          CLOUDY    70  69  97 S7        29.99F FOG
SHIRLEY        CLOUDY    67  67 100 S9        30.01S FOG
RIVERHEAD        N/A     70  68  94 CALM      29.99S
WESTHAMPTON    FOG       66  65  96 SW9       30.02S VSB 1/2
EAST HAMPTON   FOG       65  64  97 SW10G16   30.01S VSB 3/4
MONTAUK POINT    N/A     66  66 100 SW8G18    30.02F
$$

NYZ052-065-067-301600-
HUDSON VALLEY

CITY           SKY/WX    TMP DP  RH WIND       PRES   REMARKS
WHITE PLAINS   PTSUNNY   71  67  87 NW6       29.99F
NEWBURGH       PTSUNNY   70  66  88 W6        30.00F
MONTGOMERY     PTSUNNY   71  65  81 SW7       29.99F
POUGHKEEPSIE   CLOUDY    72  65  78 SW7       29.98F
ALBANY         PTSUNNY   73  63  70 S9        29.96F
$$

NJZ001-105-106-008-010-013-015-019>022-104-301600-
NEW JERSEY

CITY           SKY/WX    TMP DP  RH WIND       PRES   REMARKS
NEWARK/LIBERTY CLOUDY    76  68  76 W6        29.99F
TETERBORO      LGT RAIN  75  65  70 SW6       29.98F
CALDWELL       CLOUDY    74  65  73 W6        29.99F
MORRISTOWN     CLOUDY    75  68  78 W6        30.00F
SOMERVILLE     CLOUDY    76  67  73 N3        29.98F
SUSSEX         CLOUDY    71  65  81 S5        30.00F
ANDOVER          N/A     73  66  78 SW6       30.01F
TRENTON        CLOUDY    75  68  78 S3        30.00F
MILLVILLE      CLOUDY    75  70  84 W5        30.02S
ATLANTIC CITY  CLOUDY    75  73  93 SW5       30.01F
WRIGHTSTOWN    PTSUNNY   74  70  87 W6        29.99F
TOMS RIVER     CLOUDY   N/A N/A N/A W5        30.01F
BELMAR         CLOUDY    75  71  87 W6        30.01F
$$

PAZ047>061-062-071-301600-
EASTERN PENNSYLVANIA

CITY           SKY/WX    TMP DP  RH WIND       PRES   REMARKS
PHILADELPHIA   CLOUDY    75  68  78 S6        30.01F
ALLENTOWN      CLOUDY    73  65  75 W5        30.01F
SCRANTON       CLOUDY    72  62  71 SW6       30.00F
$$

CTZ002-004>006-009-010-012-RIZ004-006-007-MAZ004-011-015-301600-
SOUTHERN NEW ENGLAND
 IN CT

CITY           SKY/WX    TMP DP  RH WIND       PRES   REMARKS
BRADLEY INTL   CLOUDY    69  65  86 S5        29.98F
HARTFORD       CLOUDY    71  66  84 CALM      29.98F
DANBURY        CLOUDY    69  65  86 S3        30.01F
WTRBRY/OXFORD  CLOUDY    68  63  83 W3        30.02F
BRIDGEPORT     CLOUDY    71  68  90 SW6       29.99S
MERIDEN        CLOUDY    72  67  84 CALM      29.98F
NEW HAVEN      CLOUDY    69  68  96 CALM      29.99S FOG
CHESTER        CLOUDY    70  70 100 SW3       30.00S FOG
GROTON         LGT RAIN  66  66 100 SW9       29.98F VSB 3/4
WILLIMANTIC    LGT RAIN  69  64  84 CALM      29.99F

 IN RI

CITY           SKY/WX    TMP DP  RH WIND       PRES   REMARKS
PROVIDENCE     LGT RAIN  63  61  93 CALM      30.00F FOG
BLOCK ISLAND   LGT RAIN  64  64 100 SW17      30.01F VSB 3/4
WESTERLY       FOG       68  65  90 SW6       30.00F VSB 3/4

 IN MA

CITY           SKY/WX    TMP DP  RH WIND       PRES   REMARKS
BOSTON         LGT RAIN  58  56  93 NE3       30.01F FOG
WORCESTER      LGT RAIN  64  62  93 CALM      30.01F
WESTFIELD      CLOUDY    66  63  90 CALM      29.98F
PROVINCETOWN   LGT RAIN  62  62 100 S7        30.01F FOG
NANTUCKET      CLOUDY    64  62  93 SW14      30.03S
$$

ANZ330-335-338-340-345-350-353-355-301600-
COASTAL MARINE OBSERVATIONS


STATION/POSITION TIME  SKY/WX   TEMP    WIND        PRES    VSBY  WAVE
                                AIR SEA DIR/SP/G                  HT/PER
                 (UTC)          (F)     (DEG/KT/KT) (MB)    (MI)  (FT/S)
NY HARB ENTRANCE 1350            60 58  200/ 10/ 12 1015.6          2/ 7
20S FIRE ISLAND  1350            63 61  200/ 10/ 12 1016.0          3/ 8
GREAT SOUTH BAY  1400            66 71  230/ 14/ 17   N/A
23 SSW MONTAUK P 1450            62 59  210/ 14/ 16 1015.9          3/ 8
15 E BARNEGAT LI 1422               61                N/A           3/ 6
HUDSON CANYON    1350            64 59              1017.1          4/ 7
KINGS POINT      1400            66 58              1015.7
EXECUTION ROCKS  NOT AVBL
CENTRAL LI SOUND 1400            65     210/  8/  8   N/A           0
EASTERN LI SOUND 1400            60 55  230/  8/  8   N/A
ROBBINS REEF     1406            71     290/  6/  6 1015.2
$$


>>>>>>>>>>>>>>>>>>>>>>>>>>>> KEY <<<<<<<<<<<<<<<<<<<<<<<<<<<
>                                                          <
>     SKY/WX - SKY CONDITION/PRESENT WEATHER               <
>     TMP    - TEMPERATURE IN FAHRENHEIT                   <
>     DP     - DEWPOINT IN FAHRENHEIT                      <
>     RH     - RELATIVE HUMIDITY IN PERCENT                <
>     WIND   - DIRECTION AND SPEED IN MPH                  <
>     PRES   - MEAN SEA LEVEL PRESSURE IN INCHES OF HG     <
>     WCI    - WIND CHILL INDEX                            <
>     VSB    - VISIBILITY IN MILES                         <
>     HX     - HEAT INDEX                                  <
>     TC     - TEMPERATURE IN CELSIUS                      <
>     VRB    - VARIABLE WIND DIRECTION                     <
>                                                          <
>>>>>>>>>>>>>>>>>>>>>>>>>>>> KEY <<<<<<<<<<<<<<<<<<<<<<<<<<<






USA.gov is the U.S. government's official web portal to all federal, state and local government web resources and services.